Triuchirapalli, India

3:42 AM IST on April 22, 2018 (GMT +0530)
Tiruchirappalli

Weather History for VOTR - October, 2012

Change the Weather History Date:

Tuesday, October 30, 2012

  Actual Average Record
Temperature  
Mean Temperature 76 °F -  
Max Temperature 78 °F 83 °F 93 °F (1996)
Min Temperature 73 °F 74 °F 73 °F (2004)
Cooling Degree Days 10    
Growing Degree Days 26 (Base 50)    
Moisture  
Dew Point 72 °F    
Average Humidity 88    
Maximum Humidity 95    
Minimum Humidity 77    
Precipitation  
Precipitation 0.20 in - - ()
Sea Level Pressure  
Sea Level Pressure 29.76 in    
Wind  
Wind Speed 5 mph ()    
Max Wind Speed 16 mph    
Max Gust Speed -    
Visibility 1.3 miles    
Events Rain    
Averages and records for this station are not official NWS values.
T = Trace of Precipitation, MM = Missing Value Source: Averaged Metar Reports

Daily Weather History Graph

Daily Weather History Graph

Search for Another Location

Airport or City:

Astronomy

Oct. 30, 2012 Rise Set
Actual Time 6:05 AM IST 5:51 PM IST
Civil Twilight 5:44 AM IST 6:12 PM IST
Nautical Twilight 5:19 AM IST 6:38 PM IST
Astronomical Twilight 4:54 AM IST 7:02 PM IST
Moon 6:14 PM IST (10/30) 6:17 AM IST (10/30)
Length of Visible Light 12h 28m
Length of Day
11h 45m
Full, 100% of the Moon is Illuminated
Oct 30
Full
Nov 7
Last Quarter
Nov 14
New
Nov 20
First Quarter
Nov 28
Full

Hourly Weather History & Observations

Time (IST) Temp. Dew Point Humidity Pressure Visibility Wind Dir Wind Speed Gust Speed Precip Events Conditions
12:10 AM 78.8 °F 73.4 °F 83% 29.80 in 1.6 mi Calm Calm - N/A   Haze
12:40 AM 78.8 °F 73.4 °F 83% 29.80 in 1.6 mi Calm Calm - N/A   Haze
1:10 AM 77.0 °F 73.4 °F 89% 29.77 in 1.6 mi NNE 3.5 mph - N/A   Haze
1:40 AM 77.0 °F 73.4 °F 89% 29.77 in 1.6 mi NE 5.8 mph - N/A   Haze
2:10 AM 77.0 °F 73.4 °F 89% 29.74 in 1.6 mi NNE 8.1 mph - N/A   Haze
2:30 AM 77 °F 73 °F 84% 29.75 in 1 mi NNE 6.9 mph - -   Haze
2:40 AM 77.0 °F 73.4 °F 89% 29.74 in 1.6 mi North 4.6 mph - N/A   Haze
3:10 AM 77.0 °F 73.4 °F 89% 29.74 in 1.6 mi Variable 3.5 mph - N/A   Haze
3:40 AM 77.0 °F 73.4 °F 89% 29.74 in 1.6 mi North 4.6 mph - N/A   Haze
4:10 AM 77.0 °F 73.4 °F 89% 29.74 in 1.6 mi North 4.6 mph - N/A   Haze
4:40 AM 77.0 °F 73.4 °F 89% 29.74 in 1.6 mi North 4.6 mph - N/A   Haze
5:10 AM 77.0 °F 73.4 °F 89% 29.74 in 1.6 mi NE 3.5 mph - N/A   Haze
5:30 AM 77 °F 71 °F 77% 29.75 in 1 mi ENE 2.3 mph - -   Haze
5:40 AM 77.0 °F 71.6 °F 83% 29.74 in 1.6 mi East 2.3 mph - N/A   Haze
6:10 AM 77.0 °F 71.6 °F 83% 29.74 in 1.6 mi ENE 4.6 mph - N/A   Haze
7:10 AM 77.0 °F 71.6 °F 83% 29.77 in 1.2 mi ENE 3.5 mph - N/A   Overcast
7:40 AM 78.8 °F 71.6 °F 78% 29.80 in 1.2 mi East 3.5 mph - N/A   Overcast
8:10 AM 78.8 °F 71.6 °F 78% 29.80 in 1.2 mi NE 2.3 mph - N/A   Overcast
8:40 AM 77.0 °F 73.4 °F 89% 29.80 in 1.2 mi NNE 3.5 mph - N/A   Overcast
9:10 AM 77.0 °F 73.4 °F 89% 29.80 in 1.2 mi NNE 5.8 mph - N/A   Overcast
9:40 AM 77.0 °F 73.4 °F 89% 29.83 in 1.2 mi NE 6.9 mph - N/A   Overcast
10:10 AM 77.0 °F 73.4 °F 89% 29.83 in 1.2 mi ENE 3.5 mph - N/A   Overcast
10:40 AM 77.0 °F 73.4 °F 89% 29.83 in 1.2 mi NNE 4.6 mph - N/A   Overcast
11:10 AM 77.0 °F 73.4 °F 89% 29.80 in 1.2 mi NE 5.8 mph - N/A   Mostly Cloudy
11:30 AM 77 °F 72 °F 79% 29.81 in 1 mi NNE 9.2 mph - - Rain Light Drizzle
11:40 AM 77.0 °F 71.6 °F 83% 29.80 in - NNE 16.1 mph - N/A   Light Drizzle
12:10 PM 77.0 °F 71.6 °F 83% 29.80 in 1.2 mi NNE 13.8 mph - N/A   Light Drizzle
12:40 PM 77.0 °F 71.6 °F 83% 29.77 in 1.2 mi NNE 10.4 mph - N/A   Light Drizzle
1:10 PM 77.0 °F 73.4 °F 89% 29.77 in 1.2 mi NE 10.4 mph - N/A   Light Drizzle
1:40 PM 77.0 °F 73.4 °F 89% 29.74 in 1.2 mi NNE 13.8 mph - N/A   Light Drizzle
2:10 PM 77.0 °F 73.4 °F 89% 29.74 in 1.2 mi NNE 12.7 mph - N/A   Light Drizzle
2:30 PM 74 °F 72 °F 91% 29.73 in 1 mi North 12.7 mph - - Rain Light Drizzle
2:40 PM 75.2 °F 73.4 °F 94% 29.74 in 1.2 mi NNE 12.7 mph - N/A   Light Drizzle
3:10 PM 75.2 °F 71.6 °F 89% 29.71 in 1.2 mi North 15.0 mph - N/A   Light Drizzle
3:40 PM 75.2 °F 71.6 °F 89% 29.71 in 1.2 mi North 12.7 mph - N/A   Light Drizzle
4:10 PM 75.2 °F 71.6 °F 89% 29.71 in 1.2 mi NNE 10.4 mph - N/A   Light Drizzle
4:40 PM 75.2 °F 71.6 °F 89% 29.71 in 1.2 mi North 9.2 mph - N/A   Light Drizzle
5:10 PM 75.2 °F 71.6 °F 89% 29.71 in 1.2 mi NNE 9.2 mph - N/A   Light Drizzle
5:30 PM 74 °F 71 °F 89% 29.72 in 1 mi NNE 9.2 mph - - Rain Light Drizzle
5:40 PM 73.4 °F 68.0 °F 83% 29.71 in 1.2 mi North 11.5 mph - N/A   Light Drizzle
6:10 PM 73.4 °F 71.6 °F 94% 29.74 in 1.2 mi NNE 10.4 mph - N/A   Light Drizzle
6:40 PM 73.4 °F 71.6 °F 94% 29.74 in 1.2 mi North 9.2 mph - N/A   Light Drizzle
7:10 PM 73.4 °F 71.6 °F 94% 29.74 in 1.2 mi North 6.9 mph - N/A   Drizzle
7:40 PM 73.4 °F 71.6 °F 94% 29.74 in 1.6 mi NNW 3.5 mph - N/A   Light Drizzle
8:10 PM 73.4 °F 71.6 °F 94% 29.74 in 1.6 mi NNW 4.6 mph - N/A   Light Drizzle
8:30 PM 73 °F 71 °F 92% 29.74 in 1 mi NW 4.6 mph - - Rain Light Drizzle
8:40 PM 73.4 °F 71.6 °F 94% 29.74 in 1.6 mi NW 4.6 mph - N/A   Light Drizzle
9:10 PM 73.4 °F 71.6 °F 94% 29.77 in 1.6 mi WNW 2.3 mph - N/A   Light Drizzle
9:40 PM 77.0 °F 71.6 °F 83% 29.77 in 1.6 mi WNW 2.3 mph - N/A   Light Drizzle
10:10 PM 73.4 °F 71.6 °F 94% 29.77 in 1.2 mi NNW 2.3 mph - N/A   Drizzle
10:40 PM 73.4 °F 71.6 °F 94% 29.77 in 1.2 mi NNW 2.3 mph - N/A   Drizzle
11:10 PM 73.4 °F 71.6 °F 94% 29.77 in 1.2 mi WNW 3.5 mph - N/A   Drizzle
11:30 PM 73 °F 72 °F 95% 29.78 in 1 mi WNW 8.1 mph - - Rain Drizzle
11:40 PM 73.4 °F 71.6 °F 94% 29.74 in 1.2 mi West 4.6 mph - N/A   Drizzle